[[{"header":{"parameterUnit":"m.s-1","parameterCategory":1,"la1":30.2992,"la2":30.254,"lo1":-89.0895,"lo2":-89.0443,"dy":0.0025,"dx":0.0025,"nx":19,"ny":19,"refTime":"2026-04-12T09:00:00:Z","depth":0,"parameterNumber":2,"parameterNumberName":"U-component_of_WINDS"},"data":[0,0,0,-4.9398,-4.9402,-4.9555,-4.9556,-4.9775,-4.9777,0,0,0,0,0,0,0,0,0,0,0,-4.9366,-4.9368,-4.9398,-4.9402,-4.9555,-4.9556,-4.9775,-4.9777,0,0,0,0,0,0,0,0,0,0,0,-4.9365,-4.9367,-4.937,-4.9403,-4.9555,-4.9556,-4.9774,-4.965,0,0,0,0,0,0,0,0,0,0,-4.9498,-4.948,-4.9367,-4.937,-4.9404,-4.9555,-4.9556,-4.9644,-4.9658,-4.9715,0,-4.9769,0,-4.9777,-4.9793,-4.9794,0,0,0,-4.9392,-4.9469,-4.9498,-4.937,-4.9405,-4.9555,-4.9483,-4.9652,-4.9668,-4.9734,-4.9772,-4.978,-4.9781,-4.9795,-4.9796,-5.016,-5.0162,0,0,-4.9384,-4.94,-4.9487,-4.9509,-4.9486,-4.9478,-4.9488,-4.9661,-4.9703,-4.9773,-4.9784,-4.9784,-4.9797,-4.9798,-5.0158,-5.016,0,0,0,-4.9366,-4.9395,-4.942,-4.9501,-4.9527,-4.9483,-4.9494,-4.9696,-4.9702,-4.9787,-4.9787,-4.9798,-4.9801,-5.0155,-5.0159,-5.0281,0,0,0,-4.936,-4.9384,-4.9417,-4.9428,-4.9524,-4.9613,-4.9526,-4.969,-4.9709,-4.9786,-4.9798,-4.9803,-5.0153,-5.0157,-5.0272,-5.0335,0,0,0,-4.9351,-4.9383,-4.941,-4.9429,-4.9495,-4.961,-4.9626,-4.9694,-4.971,-4.9794,-4.9804,-5.0151,-5.0156,-5.0265,-5.0323,-5.0436,0,0,0,-4.9346,-4.9516,-4.9412,-4.9602,-4.9494,-4.9685,-4.9625,-4.9766,-4.9853,-4.9799,-5.0153,-5.0158,-5.0262,-5.0315,-5.0428,-5.0533,-5.0578,0,0,-4.9569,-4.9543,-4.9654,-4.9566,-4.9779,-4.966,-4.9892,-4.9955,-4.9948,-5.009,-5.0099,-5.0275,-5.0322,-5.0434,-5.0831,-5.0868,0,0,0,-4.973,-4.981,-4.9863,-4.9947,-5.0001,-5.0052,-5.0079,-5.0103,-5.0223,-5.0024,-5.0347,-5.0374,-5.0439,-5.0489,-5.052,-5.0574,-5.0182,-5.0182,-5.0181,-5.0068,-5.0051,-5.0234,-5.0237,-5.032,-5.0347,-5.0413,-5.0451,-5.0408,-5.0486,-5.0526,-5.0769,-5.0828,-5.0851,-5.0908,-5.0582,-5.0582,-5.0583,-5.0583,-5.0392,-5.0502,-5.0446,-5.0602,-5.0584,-5.0716,-5.0751,-5.0718,-5.0838,-5.0736,-5.0793,-5.0682,-5.0891,-5.0941,-5.0592,-5.0591,-5.059,-5.0589,-5.0588,-5.061,-5.066,-5.0688,-5.081,-5.0906,-5.0904,-5.1023,-5.1003,-5.0985,-5.1041,-5.1082,-5.108,-5.1075,-5.1063,-5.1064,-5.1065,-5.1065,-5.1066,-5.1066,-5.0823,-5.0851,-5.0953,-5.1028,-5.1081,-5.1148,-5.1181,-5.1233,-5.1285,-5.1261,-5.1261,-5.1212,-5.0916,-5.0841,-5.1079,-5.1077,-5.1075,-5.1074,-5.1073,-5.1154,-5.1077,-5.1235,-5.1289,-5.1376,-5.1474,-5.1449,-5.1557,-5.1597,-5.1657,-5.1598,-5.1382,-5.1353,-5.1329,-5.1266,-5.1601,-5.1601,-5.1601,-5.1601,-5.1336,-5.1321,-5.148,-5.1567,-5.165,-5.1644,-5.1826,-5.1855,-5.1873,-5.1897,-5.1847,-5.1763,-5.1739,-5.1725,-5.1691,-5.1633,-5.2053,-5.2054,-5.2054,-5.1539,-5.1532,-5.1688,-5.1705,-5.1774,-5.1833,-5.2003,-5.2107,-5.2111,-5.2072,-5.1916,-5.1897,-5.1762,-5.1719,-5.1672,-5.1621,-5.1513,0,0]},{"header":{"parameterUnit":"m.s-1","parameterCategory":1,"la1":30.2992,"la2":30.254,"lo1":-89.0895,"lo2":-89.0443,"dy":0.0025,"dx":0.0025,"nx":19,"ny":19,"refTime":"2026-04-12T09:00:00:Z","depth":0,"parameterNumber":3,"parameterNumberName":"V-component_of_WINDS"},"data":[0,0,0,1.9574,1.9572,1.9475,1.9474,1.9356,1.9355,0,0,0,0,0,0,0,0,0,0,0,1.9608,1.9608,1.9574,1.9572,1.9475,1.9474,1.9356,1.9355,0,0,0,0,0,0,0,0,0,0,0,1.9609,1.9608,1.9607,1.9572,1.9475,1.9474,1.9356,1.9427,0,0,0,0,0,0,0,0,0,0,1.952,1.9558,1.9608,1.9607,1.9571,1.9475,1.9474,1.943,1.9423,1.9403,0,1.9389,0,1.937,1.9348,1.9347,0,0,0,1.9567,1.9564,1.9533,1.9607,1.957,1.9475,1.9517,1.9426,1.9417,1.9393,1.9387,1.9383,1.9368,1.9347,1.9346,1.9256,1.9256,0,0,1.9573,1.9593,1.954,1.9528,1.9546,1.9521,1.9514,1.9421,1.9415,1.9387,1.938,1.9367,1.9346,1.9345,1.9257,1.9256,0,0,0,1.9591,1.9597,1.9568,1.9533,1.9516,1.9518,1.9511,1.9419,1.9408,1.9378,1.9365,1.9345,1.9344,1.9257,1.9257,1.9268,0,0,0,1.9594,1.9608,1.9571,1.9582,1.9517,1.9466,1.9511,1.9414,1.9403,1.9366,1.9345,1.9343,1.9257,1.9257,1.9268,1.9269,0,0,0,1.9613,1.961,1.9598,1.9584,1.9543,1.9467,1.9451,1.9412,1.9395,1.9347,1.9343,1.9257,1.9257,1.9268,1.9269,1.9252,0,0,0,1.9638,1.9607,1.9599,1.956,1.9544,1.9476,1.9451,1.9399,1.9359,1.9345,1.9257,1.9257,1.9268,1.9269,1.9253,1.9241,1.9239,0,0,1.9611,1.9605,1.958,1.957,1.951,1.949,1.943,1.9372,1.9347,1.9288,1.9285,1.9268,1.9269,1.9252,1.9219,1.9218,0,0,0,1.9579,1.9562,1.9541,1.9506,1.9464,1.9427,1.9377,1.9356,1.9306,1.9322,1.9257,1.9257,1.9246,1.924,1.9238,1.9228,1.9255,1.9255,1.9255,1.9568,1.9541,1.95,1.9462,1.9428,1.9379,1.9348,1.9311,1.9291,1.9277,1.9259,1.9242,1.9236,1.9235,1.9224,1.9251,1.9251,1.9251,1.9251,1.9526,1.9497,1.9476,1.9428,1.94,1.9358,1.931,1.9298,1.9254,1.9253,1.9242,1.9243,1.9234,1.9223,1.9252,1.9252,1.9252,1.9252,1.9252,1.9515,1.9497,1.9475,1.9423,1.9386,1.9348,1.9308,1.9283,1.9259,1.9248,1.9227,1.9226,1.9222,1.924,1.924,1.924,1.924,1.924,1.924,1.9512,1.9487,1.9458,1.9414,1.9389,1.9353,1.9306,1.928,1.9245,1.923,1.9229,1.9211,1.9239,1.9246,1.9239,1.9239,1.9239,1.9239,1.9239,1.9478,1.9483,1.9438,1.9414,1.936,1.9326,1.9296,1.9246,1.9221,1.9203,1.9188,1.9213,1.9204,1.9205,1.921,1.9195,1.9195,1.9195,1.9195,1.9468,1.9463,1.9413,1.9376,1.9337,1.9307,1.9256,1.922,1.9182,1.9165,1.9164,1.917,1.9172,1.9162,1.9164,1.9168,1.9143,1.9142,1.9142,1.9446,1.9436,1.9398,1.9365,1.9322,1.9286,1.9238,1.9195,1.9153,1.914,1.9152,1.9154,1.9163,1.9167,1.9151,1.9155,1.9163,0,0]}]]